Terminal Aerodrome Forecast
Issued by NWS

Home | Current Version | Previous Version | Text Only | Print | Product List | Glossary On
Versions: 1 2 3 4 5 6 7 8 9 10 11 12 13 14
000
FTAK31 PAJN 012326
TAFAGY
TAF
PAGY 012326Z 0200/0224 04015KT P6SM OVC080
     FM020600 04010KT P6SM BKN100
     FM021500 04011G18KT P6SM SCT150
     FM022100 04010KT P6SM BKN120
      AMD LTD TO CLD VIS AND WIND=

USA.gov is the U.S. government's official web portal to all federal, state and local government web resources and services.